Theta_e
320 319 318 317 315 313 310 312 314 312 310 308 309 312 315 316 318 320 320 320 321 320 320 321 321 321 320 319 318 320 323 324 325 327 326 326 325 326 326 325 325 325 326 327 328 328 328 327 327 328 327 325 324 322 322 325 326 326 329 330 330 331 331
319 317 317 317 313 311 311 314 318 316 311 308 308 309 311 312 313 315 317 318 318 318 318 318 316 313 310 309 310 312 315 316 317 321 324 324 324 325 326 325 324 325 326 326 328 328 327 327 327 327 326 325 324 322 322 323 324 325 327 328 329 330 330
318 316 318 318 315 314 314 314 317 317 312 308 308 307 308 309 308 309 309 309 311 313 313 311 309 306 304 305 306 306 307 308 307 309 313 317 318 317 320 323 323 323 324 324 325 325 325 325 325 326 325 324 323 323 322 322 323 324 324 327 329 330 329
318 317 318 318 317 319 318 317 318 319 315 309 307 307 307 307 306 307 306 305 306 307 307 308 307 307 305 305 306 305 306 307 306 305 305 308 313 312 312 318 320 318 319 320 322 323 322 322 323 323 323 322 322 321 321 322 323 322 323 326 328 328 329
316 316 319 318 318 319 319 319 319 319 317 311 308 308 307 307 307 306 306 305 305 305 306 307 307 308 307 306 307 306 306 306 305 306 304 305 312 314 311 312 315 315 317 316 316 317 317 317 318 318 317 318 319 320 321 322 323 322 322 323 324 325 327
313 313 318 317 317 319 319 319 320 319 319 314 310 309 308 307 307 307 306 306 306 306 306 306 307 307 307 307 306 306 306 306 305 306 306 304 307 310 310 311 313 315 315 311 307 310 312 312 314 316 316 317 317 317 317 317 317 318 320 320 320 321 323
312 311 316 318 317 319 319 319 319 319 320 317 313 310 308 308 308 307 307 306 306 306 306 306 306 306 307 308 307 306 306 306 306 305 305 305 304 304 307 309 310 310 310 307 305 309 313 313 315 316 316 315 315 314 314 314 314 315 317 319 320 320 320
315 312 315 318 317 317 320 319 318 319 320 319 316 311 308 309 309 307 307 307 306 306 306 306 306 306 306 307 306 306 306 305 306 306 305 305 304 304 304 305 308 310 307 306 308 310 311 312 313 314 314 313 314 314 314 314 315 315 316 317 318 318 319
320 317 316 318 318 316 318 319 318 318 319 320 318 313 309 309 309 307 307 307 307 307 306 305 306 306 305 306 306 305 306 305 305 305 305 305 304 304 303 302 308 310 305 303 307 307 306 306 307 310 313 314 314 315 315 314 314 315 316 317 317 318 319
322 321 318 318 319 316 316 318 318 319 319 320 319 313 309 310 309 308 308 308 307 307 307 306 306 306 305 305 305 305 305 305 305 305 305 305 304 304 304 302 305 308 305 302 304 303 303 303 302 305 309 312 313 314 314 315 314 315 315 315 316 316 317
320 322 321 320 321 318 315 315 317 319 319 320 319 313 311 311 310 309 308 308 308 307 307 307 306 306 306 306 305 305 305 304 305 305 304 305 305 304 304 303 303 305 304 302 302 302 302 303 302 303 306 309 312 313 314 314 314 314 314 314 314 315 316
314 318 321 321 323 322 318 315 316 318 318 319 319 314 311 312 311 310 310 308 309 308 308 308 307 306 306 306 306 305 305 305 304 304 304 304 304 304 304 304 303 304 303 302 304 303 302 303 302 303 305 308 311 312 313 313 313 313 313 315 315 315 315
315 318 321 321 323 323 321 318 317 317 317 317 317 315 312 312 312 311 311 310 309 309 308 308 307 307 307 307 307 307 306 304 304 305 304 304 304 304 304 304 304 304 304 304 305 304 304 305 304 302 304 307 309 311 312 312 313 313 313 313 314 313 313
316 318 321 322 323 323 322 320 319 318 318 317 316 314 312 313 313 312 312 312 311 310 309 309 308 308 308 308 308 309 307 305 306 307 305 304 304 304 304 305 305 304 304 304 303 304 306 308 307 306 308 309 310 311 311 312 312 312 312 312 313 313 313
313 315 321 322 323 322 320 321 322 320 319 319 317 315 313 313 314 314 314 314 314 313 311 311 310 308 308 309 308 308 307 306 307 307 305 303 304 304 303 304 304 304 304 303 303 303 306 308 307 308 309 310 310 310 310 310 311 311 311 310 311 311 311
316 317 320 321 322 321 317 318 322 321 320 320 319 318 315 314 314 315 315 316 315 315 314 313 312 310 310 310 308 308 307 306 306 306 305 304 306 306 304 303 304 304 303 304 303 302 303 305 306 308 308 308 309 309 309 310 310 309 310 309 309 310 310
322 321 320 320 321 322 319 316 317 319 321 321 320 320 318 317 317 317 317 317 317 316 315 315 314 313 311 311 310 309 308 307 306 306 305 305 306 305 304 303 304 304 303 303 302 302 304 305 305 306 307 307 307 308 309 310 310 310 310 310 309 309 309
322 321 320 319 319 320 320 318 316 318 321 321 319 320 320 319 318 319 318 318 318 318 317 316 315 314 313 312 311 310 309 308 307 306 306 305 305 304 303 303 303 303 302 302 301 302 303 303 301 301 302 304 305 306 306 307 307 308 308 309 309 308 308
322 322 320 320 319 318 318 320 320 319 320 320 319 318 320 320 319 319 319 319 319 319 318 317 316 315 314 313 312 311 310 309 308 307 306 306 305 305 304 303 302 302 302 301 301 300 300 299 298 299 299 300 301 302 303 303 304 306 306 307 308 308 308
318 319 320 321 322 321 321 322 322 322 321 320 320 319 319 320 320 319 319 319 319 319 318 318 317 315 314 313 312 311 310 309 308 307 307 306 305 305 304 303 302 302 301 301 300 299 298 297 297 297 297 298 300 301 302 303 305 306 307 307 307 307 308
313 313 315 317 318 321 323 323 322 321 321 321 321 320 320 320 320 320 319 319 319 319 319 318 317 316 314 314 313 312 311 310 308 308 307 306 305 305 304 303 302 301 301 300 299 298 297 297 296 296 296 296 297 298 299 300 303 305 306 306 307 307 307
310 309 308 309 311 313 317 319 320 320 320 320 320 320 320 321 321 321 320 320 319 319 318 318 318 316 314 313 313 312 311 310 309 308 307 306 305 305 304 303 302 301 301 300 298 297 297 296 295 295 294 294 294 295 295 296 299 303 305 306 306 306 306
308 308 308 309 311 310 310 315 319 321 321 321 321 321 321 321 321 321 320 320 319 319 318 318 317 316 314 313 313 312 311 310 309 307 306 305 305 304 304 303 301 301 300 299 297 297 296 295 294 294 294 294 294 294 294 295 296 298 301 303 304 305 305
309 310 310 312 315 315 315 317 319 320 320 320 319 320 321 321 321 320 320 319 319 319 318 317 317 315 314 313 312 311 311 310 309 307 306 305 304 304 303 302 300 300 299 298 297 297 296 295 294 294 294 294 294 294 294 295 295 295 297 298 300 302 304
308 309 310 311 313 315 317 318 318 318 318 318 317 317 320 321 320 319 319 319 318 318 317 316 316 315 314 313 312 311 310 309 308 307 306 305 304 303 302 301 299 298 297 296 295 295 294 295 296 295 295 295 295 295 295 295 295 295 295 296 297 298 300
307 307 308 309 311 313 315 316 317 317 317 318 317 315 316 319 319 319 319 318 318 317 316 315 315 314 314 313 312 311 309 307 307 306 305 304 304 303 301 299 298 297 296 296 295 295 295 296 296 295 295 295 295 295 295 295 295 296 296 296 296 297 297
307 308 308 308 308 310 312 314 316 316 316 317 317 315 313 314 316 318 319 318 317 316 315 315 315 314 313 312 312 311 307 305 305 305 304 303 303 301 300 299 297 296 296 296 296 296 296 295 295 294 294 295 296 296 296 296 296 296 296 296 297 297 297
307 307 307 308 308 308 310 312 314 315 316 315 316 316 314 313 314 316 317 317 316 316 315 315 314 313 312 311 311 310 307 305 305 305 303 302 301 299 298 298 297 297 296 297 297 296 295 294 294 294 294 295 296 296 297 297 297 297 297 298 298 298 299
308 307 307 307 308 308 309 311 313 314 315 315 315 315 314 314 315 316 317 316 315 315 315 315 314 312 311 311 309 308 306 306 305 303 302 300 299 299 298 298 298 298 298 297 297 296 295 294 294 294 294 295 295 296 297 297 297 297 297 298 298 298 299
307 307 307 307 307 308 308 309 311 313 314 314 314 314 314 314 314 315 316 315 315 315 314 313 312 310 310 309 308 306 305 304 303 301 300 300 300 300 300 300 299 298 298 297 297 295 294 294 294 294 295 295 295 296 296 297 297 297 297 297 297 297 297
307 307 307 307 306 307 308 308 310 313 313 313 313 313 313 313 313 314 315 314 314 314 313 311 310 309 308 308 306 304 302 302 301 301 301 301 300 300 300 300 299 298 297 297 297 296 295 295 295 295 295 295 295 295 296 296 296 297 297 297 297 297 297
307 306 306 306 305 307 308 308 310 312 312 312 313 312 312 313 313 313 314 313 313 313 312 310 308 307 306 305 304 302 300 300 300 300 300 300 300 300 300 300 299 298 297 297 297 296 296 295 295 295 295 294 294 294 295 295 296 296 296 297 297 297 297
308 307 306 305 305 306 308 309 310 312 312 312 312 312 312 312 312 312 312 313 312 311 309 308 307 305 303 302 301 300 299 299 298 299 299 299 299 299 299 298 298 297 297 297 296 296 295 295 295 295 294 294 294 294 294 294 295 295 295 295 295 295 295
307 307 306 306 305 306 308 310 311 311 312 311 311 311 311 311 311 311 311 311 310 308 307 306 305 302 300 300 299 299 299 298 297 296 296 296 296 296 297 297 297 296 296 296 296 296 295 295 295 294 294 294 294 293 293 293 293 293 293 293 293 293 293
307 307 305 303 304 306 309 311 311 311 311 311 311 311 310 310 310 310 309 308 307 306 304 303 301 299 299 299 299 299 298 296 294 294 293 293 294 294 295 296 296 296 296 296 296 296 295 295 294 294 293 293 293 293 293 292 292 292 292 292 292 292 292
307 307 306 305 305 307 308 310 311 310 310 311 310 309 309 310 310 309 307 306 305 304 302 300 300 299 299 299 298 296 295 294 293 293 292 292 292 293 294 295 296 296 296 295 295 295 294 294 293 293 293 293 293 292 292 292 291 291 291 291 291 291 292
307 307 308 307 307 308 308 309 310 310 310 310 309 309 309 309 307 306 306 304 302 300 299 299 299 298 297 295 294 293 293 293 292 292 292 292 293 294 294 295 295 295 295 294 294 294 294 294 293 293 293 293 292 292 291 291 291 291 291 291 291 291 291
Wind_Speed
9 9 8 7 6 5 5 5 5 5 6 6 6 6 6 5 5 4 4 4 3 3 3 3 2 2 1 3 3 2 2 2 2 2 2 2 3 5 6 7 9 9 8 6 5 7 8 9 11 9 8 9 11 14 14 15 15 13 12 11 11 11 12
10 10 8 7 6 6 5 5 5 4 4 5 6 6 6 6 6 6 5 5 5 5 4 3 2 1 1 1 1 1 2 1 2 3 3 2 1 1 1 2 5 5 5 5 4 5 5 7 9 8 8 9 10 11 13 16 15 13 14 14 11 10 11
11 10 9 8 7 6 5 5 5 4 3 4 5 5 5 6 6 7 6 6 7 6 4 4 5 5 5 5 5 5 5 4 3 2 3 2 1 2 1 1 2 2 4 5 4 4 4 5 6 6 7 9 10 11 12 14 16 15 15 16 15 12 10
13 12 11 9 8 7 6 5 5 4 3 2 3 4 4 4 5 6 6 6 6 6 6 7 8 8 8 8 8 8 8 7 6 5 3 2 2 1 1 1 1 2 2 3 3 4 3 5 6 6 7 8 9 11 12 13 14 14 13 13 15 14 11
14 13 12 11 10 9 8 7 6 6 4 2 1 2 3 3 4 5 5 5 5 5 6 7 7 7 7 8 8 8 7 7 7 7 6 5 4 4 3 2 1 2 2 3 4 5 5 5 6 7 7 8 9 9 9 10 11 12 12 12 14 13 12
15 14 13 12 11 10 9 8 7 6 5 4 2 1 1 2 2 3 4 4 4 4 4 4 4 4 5 6 6 6 6 6 6 5 5 5 4 4 4 4 3 2 2 3 3 2 4 5 5 7 7 8 9 10 10 10 11 12 11 11 12 12 11
17 16 14 13 12 11 10 10 8 7 7 6 4 3 2 0 1 2 2 2 2 2 2 2 2 2 3 4 4 4 5 5 5 5 4 4 4 3 3 3 3 3 3 4 4 3 3 4 4 5 7 7 8 10 10 10 10 10 9 8 7 8 9
16 17 15 13 13 12 11 11 10 9 8 7 6 5 3 3 2 1 0 0 1 1 1 1 1 0 1 1 2 3 3 4 4 4 4 4 4 4 3 3 4 4 4 4 5 4 2 3 3 4 6 7 8 8 8 8 7 7 7 6 6 6 7
15 16 15 14 14 14 13 12 11 10 9 9 9 6 4 4 5 4 3 2 1 1 1 2 2 2 2 1 2 2 3 4 4 4 4 4 4 4 4 3 3 2 3 3 3 3 3 2 2 3 4 6 8 8 8 7 7 6 5 5 6 5 4
16 15 15 15 15 15 14 13 12 12 11 11 11 9 5 6 6 6 6 5 4 3 3 3 4 3 3 3 3 2 3 3 4 4 5 5 5 5 5 5 3 3 4 4 3 4 4 4 3 3 3 4 6 8 8 9 8 7 7 6 6 6 6
19 17 15 15 15 16 16 15 14 14 13 14 13 11 8 7 8 7 7 8 6 6 6 5 5 5 4 5 4 4 4 4 3 4 5 5 6 6 6 7 6 5 7 7 6 5 5 5 5 4 4 4 5 7 8 10 10 9 9 9 8 8 7
22 20 17 15 15 15 16 16 15 15 15 15 15 14 11 10 10 9 9 10 8 8 8 8 8 7 6 6 6 6 6 5 4 5 5 5 6 7 7 7 8 8 10 10 8 9 9 8 7 6 6 5 6 7 8 9 12 11 9 9 10 10 11
22 21 19 17 17 16 16 16 16 16 17 16 17 16 14 13 13 12 11 11 11 11 10 10 10 9 9 9 7 7 7 5 5 6 6 6 6 6 7 8 8 9 10 11 9 11 12 10 10 10 8 6 6 8 8 9 12 13 12 12 13 14 14
23 21 19 18 19 19 17 17 17 17 18 18 18 18 17 15 16 15 14 14 13 13 13 12 12 11 11 10 8 9 9 7 5 6 7 8 8 7 6 7 9 11 11 12 10 10 9 9 11 12 10 8 7 7 8 9 12 14 14 13 13 14 14
25 24 21 19 19 19 19 18 18 18 18 19 20 20 19 18 18 17 16 16 15 15 15 15 14 14 13 13 13 12 12 9 6 8 9 9 9 10 9 8 9 11 12 13 12 10 7 7 8 8 8 9 9 9 9 9 11 14 15 14 14 14 14
21 21 20 19 18 21 24 21 18 18 18 19 20 21 21 20 20 19 18 18 17 17 17 16 17 16 14 15 16 15 14 12 10 11 11 9 7 9 12 11 11 13 14 14 14 12 9 8 7 7 9 10 11 11 11 11 12 14 16 16 15 14 13
15 16 18 17 16 19 24 25 23 20 19 19 20 21 22 22 21 20 20 20 19 19 19 18 18 18 16 16 18 17 16 14 13 12 11 9 8 9 12 11 10 12 14 14 14 12 9 8 8 9 10 10 11 12 11 12 13 13 15 16 16 16 16
13 16 18 21 21 20 22 24 25 24 21 21 21 21 22 22 22 22 22 21 20 20 20 19 20 19 18 18 18 18 16 15 14 13 12 12 11 12 13 12 11 12 13 13 13 11 10 11 12 11 11 11 11 12 13 13 14 15 16 18 19 19 19
9 11 14 18 22 24 25 25 25 25 24 23 24 23 23 23 23 23 22 22 21 20 19 19 20 20 18 18 19 19 18 16 15 14 13 13 13 13 13 13 13 14 14 13 13 13 13 14 15 14 14 14 14 14 15 16 16 16 17 18 19 19 19
6 7 9 12 15 20 23 23 22 22 22 21 23 24 25 25 25 24 24 23 22 21 20 20 21 20 19 19 20 20 19 18 16 15 15 14 14 15 15 14 15 15 15 15 14 15 15 16 16 16 16 16 15 15 16 17 16 16 17 18 18 18 18
11 12 12 13 15 18 18 18 19 20 21 23 24 25 25 25 24 24 25 24 23 23 22 22 23 22 21 21 23 22 21 20 17 17 17 16 15 16 16 16 16 16 16 16 16 17 17 17 17 17 16 16 17 18 19 18 17 17 17 17 17 17 17
16 17 17 15 16 18 16 15 16 18 21 23 25 24 23 23 23 24 25 24 24 25 25 24 24 24 23 23 24 23 22 20 17 17 17 16 16 17 17 17 18 18 18 18 18 18 18 18 18 18 17 18 18 19 20 20 20 18 17 18 18 17 17
10 12 14 13 14 16 14 13 13 15 18 19 21 21 22 23 24 25 25 24 24 26 26 25 26 27 27 26 24 23 22 20 18 17 16 15 16 17 17 17 19 21 21 20 20 20 19 18 19 19 18 18 19 20 21 22 22 21 20 20 19 18 19
7 8 10 10 11 12 12 12 12 14 17 17 17 17 19 21 23 24 24 24 25 27 28 27 29 32 32 29 25 23 22 21 20 18 17 16 16 16 16 16 17 20 22 22 22 23 22 21 21 21 20 20 20 20 22 23 24 24 24 24 23 21 20
8 9 9 10 10 10 11 11 12 13 14 16 17 16 16 18 19 20 23 26 28 29 29 30 32 36 37 33 28 25 23 22 21 19 18 17 16 14 15 16 17 20 22 22 22 22 23 23 24 25 26 26 25 24 23 23 24 25 25 26 27 26 24
9 10 10 10 10 10 11 11 12 13 13 15 17 18 18 18 18 18 22 25 25 28 30 32 35 37 36 33 31 27 21 19 19 17 16 17 17 17 17 18 18 19 20 21 21 21 20 20 22 26 28 29 30 29 27 26 26 26 26 27 29 31 30
10 10 11 11 11 11 12 12 13 13 13 14 16 18 19 19 18 18 21 21 21 26 32 33 34 36 35 33 31 26 19 18 18 17 17 19 19 19 20 19 19 18 17 17 18 17 18 20 23 25 26 26 27 28 28 29 29 29 29 29 30 31 30
10 11 11 12 12 12 13 13 14 14 14 14 15 16 17 18 17 18 21 21 22 28 33 32 31 33 33 32 29 25 21 21 21 20 19 20 20 20 20 20 19 18 17 17 17 19 21 23 24 26 26 27 27 26 26 26 27 28 28 28 28 27 25
11 12 12 12 13 13 13 14 14 14 14 14 14 15 16 17 16 16 19 21 24 30 33 31 30 30 31 30 28 24 22 23 22 19 19 19 19 19 18 17 16 17 17 17 19 23 25 25 26 27 28 29 29 27 26 25 25 27 27 27 27 26 25
11 12 13 13 14 14 14 14 14 14 15 15 15 14 14 16 17 16 17 20 26 32 33 29 27 28 29 28 25 22 21 20 19 18 17 17 15 13 13 14 15 17 18 18 22 26 27 27 27 29 31 32 30 27 26 25 25 26 27 27 29 29 29
12 13 14 14 15 15 15 15 15 15 15 16 16 15 14 15 16 16 17 22 28 32 31 27 26 27 27 25 23 19 15 13 12 12 11 11 11 10 11 15 18 20 20 20 23 26 28 29 30 32 33 33 30 27 27 27 26 24 23 24 26 27 28
15 16 17 17 17 17 16 16 15 15 15 15 15 15 13 13 15 18 22 26 30 30 28 27 26 25 24 22 20 15 11 9 7 6 7 9 9 10 11 14 18 20 20 20 22 26 30 31 33 34 35 34 33 31 29 27 24 22 22 23 25 25 26
16 17 18 19 19 18 17 16 16 15 15 16 15 14 14 14 17 21 24 27 29 26 25 26 25 23 20 19 17 16 14 11 8 8 9 9 9 11 11 12 17 20 20 21 25 29 32 34 36 36 36 36 36 35 33 30 27 27 28 29 31 31 30
17 18 20 20 20 19 17 16 16 16 16 16 14 15 17 19 21 23 24 26 26 23 23 24 23 20 18 17 16 15 13 12 11 11 11 11 11 13 12 12 17 22 23 25 29 32 34 36 37 37 37 37 37 35 34 34 34 33 32 32 32 32 30
19 20 23 24 22 20 17 16 15 16 16 16 17 19 20 22 23 22 22 24 24 24 23 21 19 17 15 13 13 12 12 12 12 13 15 15 14 14 13 13 18 23 26 28 31 33 35 36 37 38 38 37 34 33 32 33 33 32 30 29 29 28 26
19 20 22 23 22 20 17 16 16 16 15 14 17 20 20 20 21 22 23 24 23 23 21 18 16 14 12 10 10 11 11 12 13 14 15 16 16 16 16 15 18 24 27 28 30 31 32 34 35 35 34 31 28 27 27 27 26 25 25 25 24 24 23
19 19 19 18 18 18 17 16 16 17 16 15 16 19 20 19 19 22 24 24 22 19 17 14 11 8 7 8 9 10 11 13 14 14 15 17 17 18 19 19 21 24 25 26 27 29 29 28 27 26 25 23 21 21 21 21 19 18 19 20 20 21 21
Wind_Direction
154 158 153 147 145 139 125 103 83 70 66 63 62 70 76 84 98 103 96 90 74 62 54 58 98 138 188 192 168 125 83 59 72 119 127 156 193 216 222 233 246 257 267 263 257 264 274 284 285 297 294 266 270 284 285 285 278 277 279 246 217 223 228
163 160 153 153 155 147 137 126 117 105 84 75 69 74 79 81 91 99 103 108 97 82 75 70 70 77 32 4 63 87 83 69 88 114 116 92 76 225 207 259 256 261 281 278 264 265 278 288 287 304 307 277 270 275 272 278 281 278 281 271 251 244 237
163 159 158 162 163 155 150 142 136 131 102 87 80 78 83 83 87 93 98 111 114 107 100 83 66 64 66 62 58 60 59 50 54 100 139 153 189 225 172 20 322 290 291 293 299 297 309 316 299 295 301 293 287 283 274 275 279 277 276 276 275 271 258
168 164 166 170 165 160 160 154 146 147 142 117 93 84 83 79 82 90 93 95 101 103 96 88 83 79 76 72 65 63 63 61 60 63 73 100 63 8 71 83 330 297 286 303 304 275 287 324 315 297 294 293 293 294 294 294 293 286 276 275 283 285 274
180 174 174 176 170 168 170 164 162 165 171 173 131 101 86 74 70 76 89 95 97 99 95 90 90 86 77 70 64 61 59 58 62 62 59 71 71 42 33 65 13 336 320 302 280 258 268 293 301 302 298 293 292 290 295 300 299 289 274 266 271 275 271
190 185 183 185 178 175 176 173 171 173 180 192 202 186 120 84 80 72 76 93 102 106 106 97 91 82 71 63 56 54 53 47 50 55 53 59 69 66 54 54 43 18 344 318 312 292 293 296 300 302 296 297 296 289 288 288 284 279 267 258 257 255 254
197 192 189 191 187 180 180 181 176 178 188 199 221 240 249 252 96 83 79 90 100 102 108 115 114 88 75 68 51 48 47 37 35 38 39 40 42 52 60 65 58 32 5 0 13 28 354 331 328 310 300 303 299 290 289 284 280 279 268 260 256 252 253
200 198 193 194 195 188 184 187 181 183 192 198 219 250 263 242 248 264 244 135 125 126 135 170 207 271 58 59 35 34 35 28 27 25 25 28 27 29 31 50 57 21 356 20 21 11 352 316 299 299 306 309 305 299 297 292 291 289 282 284 279 264 264
200 202 197 197 203 197 189 190 187 187 191 194 213 247 271 252 257 271 270 265 252 238 227 227 240 255 270 295 337 355 8 14 16 18 19 17 18 26 19 29 57 9 337 18 10 336 328 309 294 299 302 306 307 307 309 307 302 296 296 303 296 282 274
201 204 203 202 207 207 200 196 192 192 192 193 212 244 265 257 264 270 269 274 272 265 264 254 253 256 258 264 281 310 334 352 4 11 15 14 11 12 10 10 26 11 350 354 339 328 329 318 312 293 280 286 295 301 307 308 301 297 300 297 289 293 295
207 208 209 207 208 211 210 205 199 198 196 195 213 243 257 255 265 265 263 272 275 272 273 266 265 266 257 259 268 278 294 315 332 346 358 6 8 6 6 4 3 -0 353 347 336 332 331 320 317 309 296 292 287 288 294 298 296 295 298 296 286 288 292
218 217 216 215 214 214 215 215 208 204 204 201 212 238 251 252 260 261 259 266 267 270 272 267 270 272 259 259 266 268 273 285 297 310 325 333 348 357 -0 2 3 358 351 349 342 337 336 328 325 324 308 291 284 280 279 285 288 286 289 295 286 279 276
223 224 224 224 224 223 222 223 219 214 218 217 220 239 250 247 253 258 257 260 262 263 265 263 268 270 265 269 270 262 267 275 278 282 294 304 317 334 344 349 351 351 352 353 347 339 337 330 330 336 325 301 288 283 279 277 278 279 281 285 285 284 283
226 227 227 228 229 231 231 232 229 222 222 226 230 242 250 246 247 251 249 250 255 259 262 261 263 262 262 266 260 256 272 283 263 260 281 295 298 306 323 331 330 336 346 350 347 342 336 323 325 333 326 312 298 285 280 275 277 282 283 282 284 286 287
232 233 233 233 234 236 237 239 239 231 225 226 231 241 249 248 246 244 239 239 242 247 254 256 259 258 253 255 256 260 274 279 255 257 280 294 294 297 307 313 314 321 331 338 342 343 329 306 306 307 297 291 287 283 280 275 277 281 283 284 285 286 288
235 238 241 243 242 244 246 243 238 236 233 230 230 234 242 247 247 243 236 233 233 236 241 242 249 254 247 248 258 264 268 268 260 269 285 291 285 290 303 311 311 313 323 331 336 338 329 316 308 296 287 285 284 285 284 280 281 282 284 288 289 288 288
236 237 239 243 244 250 256 251 244 244 241 237 234 232 236 239 239 237 233 230 229 232 234 232 238 247 243 244 255 261 262 263 261 267 276 276 268 276 291 302 303 304 314 323 327 331 325 311 305 297 291 291 292 293 290 287 287 285 285 288 290 291 290
238 237 238 242 243 249 261 258 250 247 241 239 240 236 234 233 229 227 227 226 224 226 228 225 229 240 243 242 249 253 255 258 258 260 264 268 271 276 283 289 290 293 303 312 316 317 307 298 299 298 293 291 289 286 282 280 281 282 284 286 288 291 292
249 248 248 251 249 250 256 255 250 248 247 247 248 242 238 236 231 227 225 224 223 222 223 223 224 231 236 238 244 249 250 251 254 257 262 270 277 280 284 285 286 288 296 302 303 303 301 302 303 302 299 296 292 287 284 284 285 285 285 285 287 290 291
270 267 255 256 258 255 254 251 249 253 255 253 251 248 243 239 234 230 226 226 225 222 224 228 227 226 225 229 240 247 249 251 254 257 263 270 276 282 287 287 286 288 291 295 298 300 302 303 303 302 301 299 297 293 291 290 289 287 284 284 285 287 288
277 281 268 258 258 258 257 256 256 260 258 251 248 246 243 239 236 232 229 230 228 225 224 226 229 226 219 225 236 243 247 252 255 258 265 272 275 282 289 288 286 287 288 293 299 300 302 302 301 301 299 296 294 293 293 292 289 287 286 285 285 285 286
263 267 268 264 261 262 265 269 269 265 256 247 244 244 242 241 239 233 232 232 230 227 224 225 229 225 218 224 235 240 244 249 250 253 263 272 277 284 289 289 289 289 291 296 299 300 303 303 301 301 299 296 295 293 293 292 290 288 286 285 285 284 285
267 262 267 272 272 273 276 276 273 266 256 247 243 243 243 243 240 235 235 236 233 228 224 225 227 223 220 225 230 233 239 244 246 251 258 266 274 282 286 288 289 290 292 296 299 301 304 303 301 300 298 296 295 293 292 290 289 287 285 284 284 284 284
283 275 275 278 278 279 278 274 268 264 261 257 252 248 246 246 245 244 243 239 232 225 222 224 227 225 226 228 227 228 237 243 246 250 256 263 270 277 282 284 285 290 296 301 304 306 307 306 303 301 298 297 295 293 291 290 289 286 284 281 280 279 278
281 279 277 277 278 278 273 270 268 264 263 263 262 260 252 247 248 251 249 242 231 224 225 228 227 226 229 232 232 234 240 246 249 252 257 262 266 267 271 276 282 290 299 302 304 307 310 311 309 307 306 305 301 298 294 291 289 288 285 282 280 277 274
286 283 282 281 281 279 276 274 271 266 262 259 261 263 257 250 250 249 248 245 237 231 232 231 227 228 233 237 238 239 241 245 248 251 253 257 262 264 267 274 284 292 297 299 303 309 311 310 308 308 309 309 307 306 303 298 295 293 289 285 282 279 276
287 286 287 286 284 283 280 276 271 267 263 257 257 263 261 256 254 250 246 243 236 230 231 231 230 234 237 239 240 238 234 236 242 246 251 258 266 271 273 278 284 286 288 292 298 300 298 299 301 303 305 306 305 304 302 300 300 298 295 291 287 284 282
286 287 289 288 288 285 280 276 272 266 263 258 255 260 262 258 254 249 243 238 229 226 229 232 236 239 238 237 238 234 229 234 244 250 257 263 270 274 278 282 285 288 291 292 289 286 291 298 300 300 301 304 304 300 294 292 292 292 293 291 288 287 285
286 287 289 288 285 283 279 275 271 264 262 259 252 252 257 256 251 245 240 233 226 227 230 235 239 238 234 233 233 230 230 239 248 255 260 267 274 280 286 288 287 290 292 289 285 287 294 299 300 301 305 308 307 301 293 289 287 286 286 283 280 278 276
287 288 290 288 285 282 279 274 270 264 260 257 253 250 251 249 244 241 236 228 226 229 232 234 235 231 228 229 229 228 233 242 251 258 265 271 278 284 284 280 279 283 286 286 287 291 297 301 302 304 307 309 306 299 293 291 288 284 283 280 279 279 277
284 286 287 287 285 282 278 275 270 263 258 256 254 249 247 246 244 238 228 222 226 232 233 231 226 221 222 225 225 227 233 243 253 261 265 269 273 273 272 274 280 287 291 291 290 293 297 301 302 303 305 305 303 296 292 292 289 284 282 281 282 284 284
283 286 287 288 286 281 277 274 268 262 258 257 254 249 245 242 239 233 224 221 227 233 232 224 216 213 217 221 221 220 219 220 232 246 257 266 271 271 273 279 287 291 293 290 286 288 293 295 297 299 301 301 298 294 293 291 286 281 278 274 273 275 276
282 286 289 290 287 282 276 270 264 259 255 254 255 253 243 230 231 234 231 228 231 232 226 217 211 209 215 219 220 221 221 224 235 251 260 267 274 276 278 283 286 285 284 283 283 285 288 291 294 296 297 296 295 294 291 287 281 277 273 270 268 268 267
277 281 284 285 285 283 276 267 261 256 251 248 247 242 232 224 229 236 234 228 225 218 211 209 207 207 213 220 227 235 243 252 260 267 271 274 280 282 284 285 283 280 280 280 282 284 287 290 292 293 292 292 292 291 288 284 282 279 276 274 273 271 270
272 276 280 284 284 280 273 265 258 252 248 242 235 233 232 230 231 231 225 219 213 204 200 202 204 207 216 227 241 256 268 275 277 280 284 287 288 284 282 282 280 279 281 282 284 287 289 290 290 290 290 290 289 287 285 282 280 278 276 276 276 275 274
266 269 276 281 282 278 270 261 254 248 242 232 226 230 235 235 229 223 213 205 201 198 197 198 203 214 227 242 259 271 278 282 285 288 290 292 291 288 286 283 277 276 280 282 284 285 286 286 286 286 286 287 287 287 286 283 280 277 276 275 275 274 274
263 264 268 273 276 273 265 257 251 241 230 224 227 233 236 231 221 212 203 193 190 192 194 196 205 222 243 260 273 281 284 288 292 295 295 295 293 290 286 282 279 281 284 286 286 286 286 286 286 286 287 290 293 295 293 286 280 277 276 274 273 272 272